Weather History for Covington, KY

Change the Weather History Date:

Tuesday, November 6, 2012

  Actual Average Record
Temperature  
Mean Temperature 41 °F 49 °F  
Max Temperature 52 °F 59 °F 78 °F (1975)
Min Temperature 30 °F 39 °F 21 °F (1973)
Degree Days  
Heating Degree Days 24 16  
Month to date heating degree days 143 91  
Since 1 July heating degree days 571 453  
Cooling Degree Days 0 0  
Month to date cooling degree days 0 0  
Year to date cooling degree days 1439 1121  
Moisture  
Dew Point 29 °F    
Average Humidity 63    
Maximum Humidity 85    
Minimum Humidity 41    
Precipitation  
Precipitation T in 0.11 in 1.49 in (1880)
Month to date precipitation 0.17 0.67  
Year to date precipitation 32.12 36.39  
Snow  
Snow 0.00 in 0.10 in 1.80 in (1971)
Month to date snowfall 0.0 0.1  
Since 1 July snowfall T 0.5  
Since 1 September snowfall T 0.5  
Snow Depth 0.00 in    
Sea Level Pressure  
Sea Level Pressure 30.00 in    
Wind  
Wind Speed 4 mph (East)    
Max Wind Speed 10 mph    
Max Gust Speed 13 mph    
Visibility 10 miles    
Events      
T = Trace of Precipitation, MM = Missing Value Source: NWS Daily Summary

Daily Weather History Graph

Daily Weather History Graph

Search for Another Location

Airport:

Trip Planner

Search our weather history database for the weather conditions in past years. The results will help you decide how hot, cold, wet, or windy it might be!

Date:

Astronomy

Nov. 06, 2012 Rise Set
Actual Time 7:12 AM EST 5:31 PM EST
Civil Twilight 6:44 AM EST 6:00 PM EST
Nautical Twilight 6:12 AM EST 6:31 PM EST
Astronomical Twilight 5:41 AM EST 7:03 PM EST
Moon No Moon Rise 1:04 PM EST (11/6)
Length of Visible Light 11h 15m
Length of Day
10h 19m
Waning Gibbous, 53% of the Moon is Illuminated
Nov 6
Waning Gibbous
Nov 6
Last Quarter
Nov 13
New
Nov 20
First Quarter
Nov 28
Full

Hourly Weather History & Observations

Time (EST) Temp. Windchill Dew Point Humidity Pressure Visibility Wind Dir Wind Speed Gust Speed Precip Events Conditions
12:52 AM 34.0 °F 27.2 °F 27.0 °F 75% 30.08 in 9.0 mi East 8.1 mph - N/A   Clear
1:52 AM 35.1 °F 28.6 °F 27.0 °F 72% 30.08 in 9.0 mi ENE 8.1 mph - N/A   Clear
2:52 AM 33.8 °F 28.6 °F 26.6 °F 75% 30.07 in 10.0 mi East 5.8 mph - N/A   Clear
3:52 AM 33.1 °F 30.0 °F 26.1 °F 75% 30.07 in 10.0 mi East 3.5 mph - N/A   Clear
4:52 AM 33.1 °F 27.7 °F 26.1 °F 75% 30.06 in 10.0 mi ENE 5.8 mph - N/A   Clear
5:52 AM 32.0 °F 26.4 °F 27.0 °F 82% 30.05 in 9.0 mi NE 5.8 mph - N/A   Clear
6:52 AM 30.9 °F 25.2 °F 26.1 °F 82% 30.05 in 9.0 mi East 5.8 mph - N/A   Partly Cloudy
7:52 AM 33.1 °F 30.0 °F 26.1 °F 75% 30.06 in 7.0 mi ENE 3.5 mph - N/A   Clear
8:52 AM 36.0 °F 32.1 °F 28.0 °F 73% 30.06 in 8.0 mi ENE 4.6 mph - N/A   Clear
9:52 AM 39.9 °F 36.7 °F 28.9 °F 65% 30.05 in 9.0 mi ENE 4.6 mph - N/A   Clear
10:52 AM 43.0 °F 40.3 °F 30.9 °F 62% 30.04 in 10.0 mi SSE 4.6 mph - N/A   Clear
11:52 AM 46.9 °F - 30.0 °F 52% 30.03 in 10.0 mi Calm Calm - N/A   Partly Cloudy
12:52 PM 46.9 °F - 30.0 °F 52% 30.00 in 10.0 mi SSE 3.5 mph - N/A   Partly Cloudy
1:52 PM 50.0 °F - 30.9 °F 48% 29.96 in 10.0 mi ENE 4.6 mph - N/A   Partly Cloudy
2:52 PM 51.1 °F - 28.0 °F 41% 29.95 in 10.0 mi Calm Calm - N/A   Scattered Clouds
3:52 PM 51.1 °F - 28.9 °F 43% 29.94 in 10.0 mi Calm Calm - N/A   Mostly Cloudy
4:52 PM 50.0 °F - 28.9 °F 44% 29.93 in 10.0 mi Calm Calm - N/A   Scattered Clouds
5:52 PM 46.0 °F 43.9 °F 28.9 °F 51% 29.94 in 10.0 mi East 4.6 mph - N/A   Scattered Clouds
6:52 PM 44.1 °F 41.5 °F 30.0 °F 58% 29.94 in 10.0 mi East 4.6 mph - N/A   Overcast
7:52 PM 44.1 °F - 32.0 °F 63% 29.94 in 10.0 mi Calm Calm - N/A   Overcast
8:52 PM 45.0 °F 42.6 °F 30.9 °F 58% 29.94 in 10.0 mi East 4.6 mph - N/A   Overcast
9:52 PM 45.0 °F 43.5 °F 30.9 °F 58% 29.93 in 10.0 mi ESE 3.5 mph - 0.00 in   Overcast
10:52 PM 45.0 °F 43.5 °F 30.0 °F 56% 29.91 in 10.0 mi East 3.5 mph - N/A   Overcast
11:52 PM 44.1 °F 41.5 °F 30.0 °F 58% 29.91 in 10.0 mi ESE 4.6 mph - N/A   Overcast